カタログに戻る

ONEWEB-0139

運用中通信PO
NORAD 47285·PAYLOAD·🇬🇧 United Kingdom

打ち上げ Dec 18, 2020 から Vostochny Cosmodrome

Loading…

次のパス (今後24時間)

TLE

最新Source: CelesTrak SupGP

元期: Sep 14, 2026, 22:05 UTC

1 47285C 20100AD  26257.92062917 -.00000080  00000+0 -22172-3 0  2570
2 47285  87.8985 332.8396 0001856 100.3678   1.1956 13.12440714    12

AllMySatでONEWEB-0139をリアルタイム追跡

Download on the App Store